• Join FlightAware (Why Join?)
  • Login
  • US Flag 
07:57PM EDT


 

Airport Tracker/Info


-or-


 

Live Flight TrackerFlight Track Log ✈ OPT325 ✈ 20-Nov-2013 ✈ KGYH - KTHV

Flight Track Log - Related Links

Times and Time Zones

All times are in EST time to prevent confusion due to time zone crossing. See the OPT325 flight status page for this flight to view local times or setup timezone preferences in your user account.

Time Position Orientation Groundspeed Altitude Reporting Facility
EST Latitude Longitude Course Direction KTS MPH feet Rate Location/Type
05:09PM 34.8053 -82.3514 31° Northeast 161 185 4,800  Level Atlanta Center
05:14PM 35.1711 -82.0800 15° North 337 388 22,100 2,760 Climbing FlightAware ADS-B
05:16PM 35.2925 -81.9136 48° Northeast 420 483 24,400 1,920 Climbing FlightAware ADS-B
05:16PM 35.3045 -81.8790 67° East 382 440 26,000 4,080 Climbing FlightAware ADS-B
05:16PM 35.3275 -81.8223 64° Northeast 374 430 27,600 2,520 Climbing FlightAware ADS-B
05:17PM 35.3524 -81.7637 62° Northeast 388 447 28,600 2,040 Climbing FlightAware ADS-B
05:17PM 35.3772 -81.7027 63° Northeast 398 458 29,700 2,340 Climbing FlightAware ADS-B
05:18PM 35.4020 -81.6405 64° Northeast 399 459 31,000 2,520 Climbing FlightAware ADS-B
05:18PM 35.4265 -81.5787 64° Northeast 401 461 32,300 2,340 Climbing FlightAware ADS-B
05:19PM 35.4510 -81.5167 64° Northeast 404 465 33,400 1,860 Climbing FlightAware ADS-B
05:19PM 35.4758 -81.4554 64° Northeast 414 476 34,200 1,680 Climbing FlightAware ADS-B
05:20PM 35.4895 -81.4305 56° Northeast 409 471 34,600 1,800 Climbing FlightAware ADS-B
05:20PM 35.4983 -81.4175 50° Northeast 407 468 34,800 600 Climbing FlightAware ADS-B
05:20PM 35.5400 -81.3680 44° Northeast 426 490 35,000 180 Climbing FlightAware ADS-B
05:21PM 35.5885 -81.3098 44° Northeast 450 518 35,000 1,740 Level FlightAware ADS-B
05:23PM 35.7987 -81.0534 45° Northeast 389 448 40,200 2,340 Climbing FlightAware ADS-B
05:24PM 35.8282 -81.0176 45° Northeast 363 418 41,600 1,980 Climbing FlightAware ADS-B
05:24PM 35.8651 -80.9733 44° Northeast 371 427 42,000 1,020 Climbing FlightAware ADS-B
05:25PM 35.9143 -80.9138 44° Northeast 373 429 42,800 1,080 Climbing FlightAware ADS-B
05:25PM 35.9525 -80.8672 45° Northeast 374 430 43,300 360 Climbing FlightAware ADS-B
05:31PM 36.3617 -80.3637 45° Northeast 420 483 45,000 240 Climbing FlightAware ADS-B
05:32PM 36.4480 -80.2563 45° Northeast 426 490 45,000  Level FlightAware ADS-B
05:32PM 36.4900 -80.2040 45° Northeast 429 494 45,000  Level FlightAware ADS-B
05:33PM 36.5236 -80.1617 45° Northeast 413 475 45,000  Level Washington Center
05:34PM 36.6233 -80.0642 38° Northeast 413 475 45,000  Level Washington Center
05:35PM 36.7317 -80.0158 20° North 407 468 45,000  Level Washington Center
05:36PM 36.8417 -79.9728 17° North 401 461 45,000  Level Washington Center
05:37PM 36.9494 -79.9322 17° North 407 468 45,000 -60 Level Washington Center
05:38PM 37.0575 -79.8889 18° North 407 468 44,900 -540 Descending Washington Center
05:39PM 37.1592 -79.8478 18° North 407 468 44,000 -900 Descending Washington Center
05:40PM 37.2692 -79.8042 18° North 407 468 43,100 -840 Descending Washington Center
05:41PM 37.3769 -79.7631 17° North 407 468 42,300 -900 Descending Washington Center
05:42PM 37.5000 -79.7069 20° North 415 478 41,300 -1,020 Descending Washington Center
05:43PM 37.6119 -79.6606 18° North 415 478 40,300 -900 Descending Washington Center
05:44PM 37.7175 -79.6269 14° North 415 478 39,600 -660 Descending Washington Center
05:45PM 37.8233 -79.5825 18° North 415 478 39,000 -300 Descending Washington Center
05:46PM 37.9397 -79.5336 18° North 407 468 39,000  Level Washington Center
05:47PM 38.0411 -79.4914 18° North 395 455 39,000 -900 Level Washington Center
05:48PM 38.1425 -79.4492 18° North 385 443 37,300  Descending Washington Center
05:49PM 38.2439 -79.4067 18° North 385 443 39,000 -1,920 Climbing Washington Center
05:50PM 38.3411 -79.3694 17° North 380 437 33,600 -3,720 Descending Washington Center
05:51PM 38.4256 -79.3339 18° North 363 418 31,700 -1,920 Descending Washington Center
05:52PM 38.5186 -79.2936 19° North 357 411 29,800 -780 Descending Washington Center
05:54PM 38.7456 -79.1927 19° North 323 372 29,000 -180 Descending FlightAware ADS-B (KWWD)
05:57PM 39.0277 -79.0735 18° North 323 372 29,000  Level FlightAware ADS-B (KWWD)
05:59PM 39.1604 -79.0172 18° North 324 373 29,000 -60 Level FlightAware ADS-B (KWWD)
06:00PM 39.2136 -78.9946 18° North 338 389 28,900 -780 Descending FlightAware ADS-B (KWWD)
06:03PM 39.4365 -78.7352 42° Northeast 316 364 26,000 -1,140 Descending FlightAware ADS-B (KWWD)
06:08PM 39.6385 -78.2650 61° Northeast 311 358 19,900 -1,380 Descending FlightAware ADS-B (KWWD)
06:08PM 39.6622 -78.2067 61° Northeast 325 374 18,700 -1,560 Descending New York Center
06:09PM 39.7058 -78.1114 59° Northeast 319 367 17,200 -1,800 Descending New York Center
06:10PM 39.7428 -78.0181 63° Northeast 308 354 15,200 -1,980 Descending New York Center
06:11PM 39.7817 -77.9275 61° Northeast 296 341 13,300 -1,140 Descending New York Center
06:12PM 39.8181 -77.8419 61° Northeast 283 326 13,000 -180 Descending New York Center
06:13PM 39.8522 -77.7589 62° Northeast 270 311 13,000 -300 Level New York Center
06:14PM 39.8861 -77.6783 61° Northeast 259 298 12,500 -960 Descending New York Center
06:15PM 39.9253 -77.5819 62° Northeast 260 299 11,100 -1,320 Descending New York Center
06:16PM 39.9422 -77.5050 74° East 259 298 9,900 -1,320 Descending New York Center
06:17PM 39.9394 -77.4044 92° East 251 289 8,500 -1,320 Descending New York Center
06:18PM 39.9375 -77.3258 92° East 251 289 7,300 -1,260 Descending New York Center
06:19PM 39.9322 -77.2333 94° East 234 269 6,000 -1,200 Descending New York Center
06:20PM 39.9297 -77.1653 93° East 222 255 5,000 -540 Descending New York Center
06:21PM 39.9150 -77.0883 104° East 208 239 5,000 -660 Level New York Center
06:22PM 39.8928 -77.0375 120° Southeast 188 216 3,700 -1,020 Descending New York Center
06:23PM 39.8692 -76.9731 116° Southeast 182 209 3,000 -360 Descending New York Center
06:24PM 39.8486 -76.9281 121° Southeast 172 198 3,000 -240 Level New York Center
06:25PM 39.8261 -76.8775 120° Southeast 159 183 2,600 -720 Descending New York Center
06:26PM 39.8528 -76.8444 44° Northeast 114 131 1,600 -720 Descending New York Center
06:27PM 39.8858 -76.8528 349° North 102 117 1,200 -540 Descending New York Center
06:28PM 39.9100 -76.8683 334° Northwest 107 123 600 -600 Descending New York Center
06:30PM 39.9167 -76.8667 339° North  Level FlightAware Approximate
06:37PM 39.9170 -76.8730 339° North  Level Estimated